Greenville, ME

11:59 AM EST on November 18, 2019 (GMT -0500)
Greenville

Weather History for KGNR - September, 2019

Change the Weather History Date:

Monday, September 30, 2019

  Actual Average (KMLT) Record (KMLT)
Temperature  
Mean Temperature 44 °F -  
Max Temperature 55 °F 61 °F 84 °F (1922)
Min Temperature 34 °F 40 °F 22 °F (1980)
Degree Days  
Heating Degree Days 20    
Moisture  
Dew Point 32 °F    
Average Humidity 64    
Maximum Humidity 82    
Minimum Humidity 45    
Precipitation  
Precipitation 0.00 in - - ()
Sea Level Pressure  
Sea Level Pressure 30.33 in    
Wind  
Wind Speed 5 mph ()    
Max Wind Speed 10 mph    
Max Gust Speed 17 mph    
Averages and records for this station are not official NWS values.
T = Trace of Precipitation, MM = Missing Value Source: Averaged Metar Reports

Daily Weather History Graph

Daily Weather History Graph

Search for Another Location

Airport or City:

Astronomy

Sep. 30, 2019 Rise Set
Actual Time 6:34 AM EDT 6:20 PM EDT
Civil Twilight 6:05 AM EDT 6:50 PM EDT
Nautical Twilight 5:31 AM EDT 7:24 PM EDT
Astronomical Twilight 4:56 AM EDT 7:59 PM EDT
Moon 8:39 AM EDT (9/30) 7:48 PM EDT (9/30)
Length of Visible Light 12h 44m
Length of Day
11h 46m
Waxing Crescent, 5% of the Moon is Illuminated
Sep 30
Waxing Crescent
Oct 5
First Quarter
Oct 13
Full
Oct 21
Last Quarter
Oct 27
New

Hourly Weather History & Observations

Time (EDT) Temp. Windchill Dew Point Humidity Pressure Visibility Wind Dir Wind Speed Gust Speed Precip Events Conditions
12:56 AM 39.9 °F 33.4 °F 32.0 °F 73% 30.40 in - North 10.4 mph 17.3 mph N/A   Unknown
1:56 AM 37.0 °F 31.6 °F 32.0 °F 82% 30.41 in - Variable 6.9 mph - N/A   Unknown
2:56 AM 37.0 °F 31.0 °F 30.0 °F 76% 30.40 in - North 8.1 mph - N/A   Unknown
3:56 AM 36.0 °F 29.0 °F 28.9 °F 76% 30.40 in - North 9.2 mph - N/A   Unknown
4:56 AM 34.0 °F 28.0 °F 28.0 °F 79% 30.40 in - NNW 6.9 mph - N/A   Unknown
5:56 AM 35.1 °F 31.0 °F 28.0 °F 76% 30.40 in - NNW 4.6 mph - N/A   Unknown
6:56 AM 35.1 °F 29.3 °F 28.0 °F 76% 30.41 in - North 6.9 mph - N/A   Unknown
7:56 AM 39.0 °F - 30.0 °F 70% 30.42 in - Calm Calm - N/A   Unknown
8:56 AM 42.1 °F 38.4 °F 28.9 °F 60% 30.41 in - NE 5.8 mph - N/A   Unknown
9:56 AM 44.1 °F 40.8 °F 28.9 °F 55% 30.40 in - Variable 5.8 mph - N/A   Unknown
10:56 AM 46.9 °F - 30.9 °F 54% 30.38 in - NNW 4.6 mph - N/A   Unknown
11:56 AM 48.9 °F - 30.9 °F 50% 30.37 in - North 4.6 mph - N/A   Unknown
12:56 PM 51.1 °F - 32.0 °F 48% 30.34 in - Variable 3.5 mph - N/A   Unknown
1:56 PM 53.1 °F - 33.1 °F 47% 30.30 in - Variable 3.5 mph - N/A   Unknown
2:56 PM 55.0 °F - 34.0 °F 45% 30.29 in - NW 5.8 mph - N/A   Unknown
3:56 PM 54.0 °F - 34.0 °F 47% 30.28 in - NNW 8.1 mph - N/A   Unknown
4:56 PM 53.1 °F - 33.1 °F 47% 30.27 in - Calm Calm - N/A   Unknown
5:56 PM 48.0 °F - 36.0 °F 63% 30.27 in - Calm Calm - N/A   Unknown
6:56 PM 46.9 °F - 36.0 °F 66% 30.26 in - SE 4.6 mph - N/A   Unknown
7:56 PM 46.0 °F 43.1 °F 37.0 °F 71% 30.25 in - SE 5.8 mph - N/A   Unknown
8:56 PM 46.9 °F - 36.0 °F 66% 30.22 in - ESE 4.6 mph - N/A   Unknown
9:56 PM 46.0 °F 43.9 °F 36.0 °F 68% 30.22 in - ESE 4.6 mph - N/A   Unknown
10:56 PM 46.0 °F 43.9 °F 36.0 °F 68% 30.22 in - SE 4.6 mph - N/A   Unknown
11:56 PM 46.0 °F 43.9 °F 36.0 °F 68% 30.21 in - SE 4.6 mph - N/A   Unknown